1500400800.09,13824,18.69,74612.5,6.15,4.67,4.67,0,*73
1500400801.33,13825,18.69,74614.0,6.15,4.79,4.75,0,*7E
1500400802.56,13826,18.69,74612.5,6.17,4.93,4.89,0,*78
1500400803.75,13827,18.69,74616.3,6.15,4.89,4.85,0,*7C
1500400804.99,13828,18.69,74612.8,6.19,5.05,4.97,0,*79
1500400806.19,13829,18.69,74610.5,6.15,4.97,4.89,0,*71
1500400807.4,13830,18.69,74618.3,6.15,4.97,4.85,0,*75
1500400808.61,13831,18.69,74620.0,6.15,4.97,4.85,0,*74
1500400809.82,13832,18.69,74618.5,6.15,4.97,4.85,0,*77
1500400811.05,13833,18.69,74616.0,6.17,4.93,4.81,0,*74
1500400812.26,13834,18.69,74616.3,6.15,4.89,4.79,0,*7D
1500400813.49,13835,18.69,74614.0,6.17,4.81,4.63,0,*7D
1500400814.7,13836,18.69,74614.0,6.15,4.53,4.31,0,*74
1500400815.91,13837,18.69,74618.0,6.15,4.63,4.41,0,*71
1500400817.12,13838,18.69,74616.3,6.15,4.79,4.53,0,*76
1500400818.33,13839,18.69,74616.0,6.15,4.75,4.41,0,*78
1500400819.53,13840,18.69,74614.0,6.15,4.67,4.41,0,*75
1500400820.74,13841,18.69,74616.8,6.15,4.63,4.27,0,*70
1500400821.97,13842,18.69,74612.3,6.17,4.67,4.23,0,*71
1500400823.2,13843,18.69,74614.5,6.15,4.79,4.31,0,*7E
1500400824.43,13844,18.69,74614.8,6.15,4.59,4.05,0,*7C
1500400825.63,13845,18.69,74612.0,6.15,4.67,4.19,0,*7D
1500400826.84,13846,18.69,74616.3,6.15,4.59,4.15,0,*7F
1500400828.06,13847,18.69,74614.5,6.13,4.63,4.27,0,*70
1500400829.29,13848,18.69,74616.8,6.13,4.63,4.27,0,*7F
1500400830.52,13849,18.69,74616.8,6.13,4.59,4.27,0,*77
1500400831.69,13850,18.69,74618.5,6.15,4.49,4.15,0,*79
1500400832.87,13851,18.69,74618.8,6.15,4.37,4.19,0,*7D
1500400834.08,13852,18.69,74614.5,6.15,4.31,4.15,0,*74
1500400835.29,13853,18.69,74618.3,6.13,4.07,3.93,0,*7F
1500400836.52,13854,18.69,74618.5,6.13,4.07,3.97,0,*7C
1500400837.75,13855,18.69,74618.5,6.09,4.01,3.89,0,*7F
1500400839.0,13856,18.69,74616.0,6.13,3.97,3.97,0,*70
1500400840.22,13857,18.69,74618.8,6.09,3.89,3.93,0,*71
1500400841.48,13858,18.69,74616.8,6.09,4.01,4.05,0,*71
1500400842.71,13859,18.69,74618.3,6.13,3.93,4.05,0,*77
1500400843.97,13860,18.69,74618.3,6.13,3.79,3.97,0,*75
1500400845.21,13861,18.69,74612.5,6.09,3.89,4.05,0,*7C
1500400846.42,13862,18.69,74616.0,6.09,3.93,4.11,0,*71
1500400847.65,13863,18.69,74616.0,6.13,4.07,4.31,0,*73
1500400848.86,13864,18.69,74612.5,6.09,3.89,4.11,0,*7C
1500400850.07,13865,18.69,74614.5,6.09,3.93,4.11,0,*76
1500400851.28,13866,18.69,74614.5,6.09,3.93,4.27,0,*70
1500400852.49,13867,18.69,74614.8,6.13,4.07,4.37,0,*71
1500400853.7,13868,18.69,74612.5,6.09,4.15,4.49,0,*7F
1500400854.91,13869,18.69,74616.0,6.09,4.15,4.49,0,*7E
1500400856.13,13870,18.69,74618.8,6.09,4.11,4.45,0,*7E
1500400857.34,13871,18.69,74616.0,6.09,4.11,4.45,0,*7F
1500400858.56,13872,18.69,74616.3,6.07,4.05,4.49,0,*7B
1500400859.77,13873,18.69,74612.5,6.07,4.05,4.49,0,*7A
1500400860.98,13874,18.69,74618.8,6.07,4.01,4.45,0,*75
1500400862.19,13875,18.69,74616.8,6.07,4.01,4.45,0,*74
1500400863.43,13876,18.69,74618.3,6.07,4.05,4.59,0,*7E
1500400864.67,13877,18.69,74614.5,6.09,4.01,4.57,0,*7B
1500400865.88,13878,18.69,74618.8,6.09,3.93,4.49,0,*77
1500400867.07,13879,18.69,74616.5,6.07,3.89,4.49,0,*73
1500400868.28,13880,18.69,74612.3,6.07,3.89,4.59,0,*74
1500400869.48,13881,18.69,74612.3,6.07,3.93,4.57,0,*70
1500400870.69,13882,18.69,74614.5,6.07,3.93,4.59,0,*7D
1500400871.95,13883,18.69,74618.5,6.09,4.01,4.59,0,*7E
1500400873.22,13884,18.69,74612.0,6.09,4.05,4.63,0,*74
1500400874.48,13885,18.69,74616.8,6.09,4.01,4.71,0,*72
1500400875.74,13886,18.69,74612.3,6.09,4.01,4.59,0,*7B
1500400876.96,13887,18.69,74612.5,6.07,4.05,4.57,0,*7E
1500400878.18,13888,18.69,74614.8,6.07,4.15,4.71,0,*74
1500400879.4,13889,18.69,74612.3,6.07,4.11,4.71,0,*71
1500400880.62,13890,18.69,74616.5,6.07,4.11,4.71,0,*79
1500400881.84,13891,18.69,74612.8,6.07,4.15,4.71,0,*7C
1500400883.06,13892,18.69,74618.5,6.07,4.23,4.75,0,*7E
1500400884.28,13893,18.69,74614.5,6.07,4.23,4.75,0,*7F
1500400885.5,13894,18.69,74612.8,6.07,4.15,4.71,0,*79
1500400886.72,13895,18.69,74612.8,6.07,4.15,4.71,0,*78
1500400887.97,13896,18.69,74612.3,6.09,4.23,4.71,0,*70
1500400889.21,13897,18.69,74614.3,6.09,4.27,4.71,0,*75
1500400890.46,13898,18.69,74616.0,6.09,4.33,4.75,0,*7B
1500400891.69,13899,18.69,74618.0,6.09,4.23,4.63,0,*7C
1500400892.94,13900,18.69,74616.3,6.09,4.27,4.71,0,*7A
1500400894.18,13901,18.69,74618.0,6.09,4.33,4.71,0,*7E
1500400895.43,13902,18.69,74616.5,6.09,4.37,4.75,0,*7D
1500400896.67,13903,18.69,74612.8,6.09,4.23,4.63,0,*7E
1500400897.91,13904,18.69,74618.0,6.09,4.27,4.71,0,*7E
1500400899.13,13905,18.69,74618.8,6.07,4.23,4.71,0,*75
1500400900.35,13906,18.69,74618.3,6.07,4.23,4.63,0,*75
1500400901.56,13907,18.69,74614.8,6.09,4.23,4.57,0,*7D
1500400902.81,13908,18.69,74614.0,6.09,4.33,4.71,0,*77
1500400904.03,13909,18.69,74614.5,6.07,4.37,4.71,0,*7C
1500400905.25,13910,18.69,74616.5,6.07,4.33,4.63,0,*73
1500400906.47,13911,18.69,74616.8,6.07,4.15,4.63,0,*76
1500400907.71,13912,18.69,74616.0,6.09,4.23,4.71,0,*7D
1500400908.95,13913,18.69,74616.8,6.09,4.33,4.71,0,*7D
1500400910.13,13914,18.69,74616.0,6.07,4.49,4.81,0,*76
1500400911.31,13915,18.69,74616.5,6.07,4.49,4.81,0,*77
1500400912.5,13916,18.69,74616.3,6.07,4.45,4.85,0,*7C
1500400913.68,13917,18.69,74618.5,6.07,4.49,4.85,0,*71
1500400914.89,13918,18.69,74614.8,6.09,4.57,4.85,0,*7F
1500400916.13,13919,18.69,74616.0,6.09,4.57,4.93,0,*79
1500400917.34,13920,18.69,74618.3,6.07,4.63,4.85,0,*7D
1500400918.58,13921,18.69,74614.5,6.09,4.59,4.85,0,*7B
1500400919.85,13922,18.69,74616.0,6.09,4.59,4.93,0,*7F
1500400921.12,13923,18.69,74614.5,6.09,4.71,4.93,0,*74
1500400922.36,13924,18.69,74616.3,6.09,4.63,4.85,0,*77
1500400923.6,13925,18.69,74614.0,6.09,4.57,4.75,0,*7E
1500400924.84,13926,18.69,74618.0,6.09,4.49,4.75,0,*72
1500400926.08,13927,18.69,74616.3,6.07,4.59,4.75,0,*7C
1500400927.33,13928,18.69,74616.8,6.07,4.59,4.75,0,*73
1500400928.57,13929,18.69,74618.0,6.07,4.71,4.93,0,*70
1500400929.79,13930,18.69,74616.5,6.07,4.75,4.85,0,*7B
1500400931.03,13931,18.69,74614.3,6.09,4.75,4.85,0,*74
1500400932.26,13932,18.69,74618.0,6.09,4.75,4.85,0,*77
1500400933.47,13933,18.69,74616.3,6.09,4.81,4.85,0,*7D
1500400934.71,13934,18.69,74614.3,6.09,4.75,4.81,0,*75
1500400935.94,13935,18.69,74618.3,6.09,4.81,4.75,0,*74
1500400937.21,13936,18.69,74616.8,6.09,4.75,4.71,0,*78
1500400938.45,13937,18.69,74616.3,6.09,4.81,4.71,0,*72
1500400939.63,13938,18.69,74614.8,6.07,4.81,4.81,0,*7C
1500400940.9,13939,18.69,74618.3,6.09,4.93,4.75,0,*7B
1500400942.14,13940,18.69,74614.0,6.09,4.63,4.45,0,*79
1500400943.34,13941,18.69,74616.3,6.09,4.49,4.27,0,*74
1500400944.58,13942,18.69,74618.0,6.09,4.63,4.37,0,*7E
1500400945.82,13943,18.69,74616.0,6.09,4.63,4.37,0,*7F
1500400947.06,13944,18.69,74618.5,6.09,4.71,4.49,0,*72
1500400948.25,13945,18.69,74618.5,6.07,4.81,4.57,0,*7D
1500400949.46,13946,18.69,74618.0,6.07,4.75,4.57,0,*75
1500400950.67,13947,18.69,74620.0,6.07,4.75,4.49,0,*7B
1500400951.9,13948,18.69,74616.0,6.13,4.67,4.37,0,*7B
1500400953.11,13949,18.69,74618.3,6.09,4.57,4.15,0,*72
1500400954.32,13950,18.69,74618.0,6.07,4.59,4.23,0,*7F
1500400955.55,13951,18.69,74616.3,6.05,4.67,4.19,0,*78
1500400956.77,13952,18.69,74618.5,6.07,4.71,4.33,0,*76
1500400957.99,13953,18.69,74616.3,6.07,4.71,4.33,0,*77
1500400959.21,13954,18.69,74616.0,6.07,4.75,4.37,0,*70
1500400960.45,13955,18.69,74612.5,6.05,4.79,4.33,0,*7B
1500400961.63,13956,18.69,74616.3,6.07,4.81,4.45,0,*7C
1500400962.82,13957,18.69,74618.0,6.07,4.81,4.45,0,*7D
1500400964.03,13958,18.69,74618.0,6.07,4.75,4.33,0,*78
1500400965.26,13959,18.69,74618.8,6.07,4.71,4.37,0,*79
1500400966.46,13960,18.69,74618.5,6.07,4.63,4.27,0,*71
1500400967.68,13961,18.69,74616.3,6.07,4.71,4.27,0,*73
1500400968.88,13962,18.69,74614.0,6.09,4.57,4.23,0,*7E
1500400970.09,13963,18.69,74618.0,6.07,4.59,4.27,0,*7B
1500400971.33,13964,18.69,74612.0,6.13,4.67,4.37,0,*75
1500400972.54,13965,18.69,74616.3,6.07,4.63,4.23,0,*70
1500400973.75,13966,18.69,74616.8,6.07,4.71,4.23,0,*70
1500400974.99,13967,18.69,74616.5,6.09,4.59,4.15,0,*70
1500400976.19,13968,18.69,74616.3,6.09,4.57,4.11,0,*75
1500400977.4,13969,18.69,74618.5,6.09,4.57,4.11,0,*74
1500400978.63,13970,18.69,74614.8,6.09,4.45,4.01,0,*7E
1500400979.84,13971,18.69,74616.0,6.07,4.45,4.01,0,*71
1500400981.03,13972,18.69,74622.0,6.07,4.33,3.89,0,*74
1500400982.21,13973,18.69,74618.0,6.07,4.23,3.85,0,*78
1500400983.43,13974,18.69,74622.0,6.07,4.15,3.79,0,*79
1500400984.64,13975,18.69,74616.5,6.07,4.11,3.79,0,*7C
1500400985.87,13976,18.69,74618.0,6.07,4.01,3.75,0,*72
1500400987.11,13977,18.69,74618.5,6.09,3.85,3.67,0,*75
1500400988.37,13978,18.69,74616.3,6.09,3.67,3.67,0,*76
1500400989.63,13979,18.69,74616.8,6.09,3.45,3.45,0,*77
1500400990.86,13980,18.69,74614.5,6.09,3.53,3.55,0,*77
1500400992.12,13981,18.69,74614.5,6.09,3.45,3.67,0,*70
1500400993.38,13982,18.69,74618.3,6.09,3.33,3.67,0,*72
1500400994.64,13983,18.69,74612.3,6.09,3.41,3.79,0,*79
1500400995.87,13984,18.69,74616.3,6.07,3.33,3.67,0,*7A
1500400997.09,13985,18.69,74614.8,6.07,3.29,3.75,0,*73
1500400998.33,13986,18.69,74616.0,6.07,3.41,3.79,0,*72
1500400999.56,13987,18.69,74616.8,6.07,3.33,3.75,0,*7A
1500401000.75,13988,18.69,74616.3,6.07,3.29,3.63,0,*79
1500401001.96,13989,18.69,74618.5,6.07,3.29,3.75,0,*7F
1500401003.2,13990,18.69,74618.5,6.07,3.41,3.79,0,*75
1500401004.43,13991,18.69,74618.5,6.07,3.33,3.79,0,*71
1500401005.67,13992,18.69,74616.3,6.07,3.33,3.75,0,*7E
1500401006.88,13993,18.69,74620.3,6.07,3.23,3.55,0,*7C
1500401008.07,13994,18.69,74616.0,6.07,2.91,3.29,0,*78
1500401009.31,13995,18.69,74616.3,6.05,3.03,3.25,0,*7D
1500401010.52,13996,18.69,74618.5,6.07,2.91,3.23,0,*70
1500401011.73,13997,18.69,74618.5,6.07,2.91,3.19,0,*78
1500401012.96,13998,18.69,74618.8,6.05,2.69,2.99,0,*7B
1500401014.21,13999,18.69,74618.8,6.05,2.69,3.23,0,*7A
1500401015.47,14000,18.69,74616.5,6.05,2.69,3.15,0,*71
1500401016.7,14001,18.69,74614.5,6.05,2.65,3.19,0,*70
1500401017.93,14002,18.69,74618.5,6.05,2.55,2.99,0,*79
1500401019.19,14003,18.69,74616.3,6.05,2.59,3.03,0,*76
1500401020.42,14004,18.69,74618.5,6.05,2.47,2.99,0,*7C
1500401021.66,14005,18.69,74622.5,6.05,2.31,2.81,0,*75
1500401022.87,14006,18.69,74618.8,6.03,2.27,2.89,0,*7F
1500401024.11,14007,18.69,74618.5,6.03,2.05,2.73,0,*7B
1500401025.36,14008,18.69,74620.0,6.01,1.89,2.73,0,*71
1500401026.6,14009,18.69,74616.5,6.03,1.89,2.89,0,*77
1500401027.86,14010,18.69,74618.0,6.01,1.89,2.89,0,*7D
1500401029.09,14011,18.69,74616.3,6.01,1.83,2.89,0,*76
1500401030.3,14012,18.69,74618.5,6.03,1.83,2.89,0,*77
1500401031.54,14013,18.69,74616.0,6.01,1.79,2.89,0,*71
1500401032.75,14014,18.69,74618.3,6.01,1.79,2.99,0,*77
1500401033.98,14015,18.69,74614.5,6.01,1.83,3.15,0,*76
1500401035.23,14016,18.69,74616.3,6.01,1.89,3.23,0,*7A
1500401036.46,14017,18.69,74618.0,6.01,1.89,3.25,0,*7D
1500401037.67,14018,18.69,74616.5,6.01,1.83,3.25,0,*78
1500401038.93,14019,18.69,74618.3,6.01,1.67,3.11,0,*74
1500401040.19,14020,18.69,74618.3,6.01,1.59,3.15,0,*77
1500401041.44,14021,18.69,74616.3,6.01,1.59,3.33,0,*72
1500401042.71,14022,18.69,74618.5,6.01,1.55,3.33,0,*7D
1500401043.94,14023,18.69,74616.3,6.01,1.41,3.33,0,*79
1500401045.19,14024,18.69,74618.8,5.99,1.37,3.41,0,*78
1500401046.46,14025,18.69,74616.8,6.01,1.29,3.45,0,*70
1500401047.7,14026,18.69,74620.0,6.01,1.21,3.55,0,*7A
1500401048.91,14027,18.69,74616.8,5.99,1.17,3.63,0,*79
1500401050.13,14028,18.69,74614.8,5.99,1.29,3.63,0,*7B
1500401051.37,14029,18.69,74614.0,5.99,1.29,3.67,0,*7E
1500401052.62,14030,18.69,74616.5,5.99,1.29,3.75,0,*75
1500401053.84,14031,18.69,74614.8,6.01,1.43,3.85,0,*75
1500401055.08,14032,18.69,74614.8,6.01,1.67,3.93,0,*77
1500401056.29,14033,18.69,74618.3,5.99,1.51,3.93,0,*71
1500401057.54,14034,18.69,74616.8,6.01,1.51,3.97,0,*70
1500401058.8,14035,18.69,74618.8,6.01,1.51,3.97,0,*71
1500401060.06,14036,18.69,74620.0,6.01,1.55,3.97,0,*76
1500401061.27,14037,18.69,74618.8,6.01,1.79,4.07,0,*77
1500401062.5,14038,18.69,74618.0,5.99,1.85,4.01,0,*7F
1500401063.74,14039,18.69,74618.5,5.99,1.97,4.01,0,*7D
1500401064.95,14040,18.69,74616.5,5.99,2.09,3.89,0,*70
1500401066.18,14041,18.69,74618.8,5.97,2.25,3.85,0,*7D
1500401067.36,14042,18.69,74616.0,5.99,2.35,3.81,0,*75
1500401068.6,14043,18.69,74616.8,5.99,2.39,3.67,0,*70
1500401069.81,14044,18.69,74620.0,5.99,2.59,3.81,0,*79
1500401071.07,14045,18.69,74612.5,5.97,2.55,3.79,0,*7D
1500401072.3,14046,18.69,74620.8,5.99,2.59,3.75,0,*70
1500401073.51,14047,18.69,74616.3,5.97,2.35,3.59,0,*7B
1500401074.74,14048,18.69,74618.0,5.97,2.47,3.63,0,*78
1500401075.97,14049,18.69,74618.5,5.97,2.43,3.63,0,*7D
1500401077.23,14050,18.69,74616.0,5.97,2.55,3.75,0,*75
1500401078.48,14051,18.69,74616.8,5.97,2.55,3.79,0,*78
1500401079.72,14052,18.69,74618.5,5.99,2.43,3.67,0,*7D
1500401080.98,14053,18.69,74616.8,5.97,2.47,3.79,0,*79
1500401082.21,14054,18.69,74618.5,5.95,2.55,3.79,0,*7F
1500401083.42,14055,18.69,74614.8,5.95,2.69,3.89,0,*7E
1500401084.65,14056,18.69,74612.8,5.95,2.81,4.01,0,*7C
1500401085.84,14057,18.69,74616.3,5.95,2.65,3.89,0,*70
1500401087.07,14058,18.69,74616.3,5.97,2.69,3.85,0,*7D
1500401088.31,14059,18.69,74618.0,5.95,2.59,3.79,0,*7E
1500401089.54,14060,18.69,74612.3,5.95,2.55,3.71,0,*70
1500401090.77,14061,18.69,74618.5,5.97,2.47,3.63,0,*73
1500401092.0,14062,18.69,74614.3,5.95,2.55,3.79,0,*7A
1500401093.27,14063,18.69,74614.0,5.93,2.51,3.75,0,*75
1500401094.5,14064,18.69,74612.5,5.95,2.69,3.75,0,*7F
1500401095.71,14065,18.69,74614.8,5.95,2.65,3.79,0,*7E
1500401096.92,14066,18.69,74616.8,5.95,2.55,3.59,0,*7C
1500401098.19,14067,18.69,74616.5,5.93,2.17,3.37,0,*75
1500401099.46,14068,18.69,74616.3,5.93,2.17,3.33,0,*7E
1500401100.69,14069,18.69,74614.0,5.93,2.31,3.67,0,*7A
1500401101.96,14070,18.69,74612.8,5.93,2.17,3.49,0,*7A
1500401103.2,14071,18.69,74616.0,5.93,2.17,3.55,0,*76
1500401104.46,14072,18.69,74614.0,5.93,2.05,3.49,0,*7B
1500401105.73,14073,18.69,74618.5,5.93,2.01,3.49,0,*7E
1500401106.96,14074,18.69,74616.3,5.93,2.13,3.59,0,*7B
1500401108.22,14075,18.69,74616.5,5.93,2.21,3.71,0,*71
1500401109.45,14076,18.69,74618.3,5.91,2.21,3.75,0,*74
1500401110.66,14077,18.69,74618.0,5.91,2.39,3.85,0,*73
1500401111.87,14078,18.69,74614.0,5.91,2.51,3.85,0,*72
1500401113.07,14079,18.69,74618.5,5.91,2.55,3.85,0,*77
1500401114.28,14080,18.69,74616.3,5.91,2.65,3.97,0,*71
1500401115.5,14081,18.69,74614.3,5.93,2.65,3.85,0,*71
1500401116.71,14082,18.69,74616.3,5.93,2.65,3.85,0,*72
1500401117.92,14083,18.69,74616.8,5.93,2.65,3.81,0,*77
1500401119.16,14084,18.69,74612.3,5.93,2.61,3.75,0,*7F
1500401120.38,14085,18.69,74618.0,5.91,2.65,3.75,0,*78
1500401121.58,14086,18.69,74616.0,5.91,2.89,3.81,0,*72
1500401122.79,14087,18.69,74616.5,5.91,2.73,3.81,0,*76
1500401124.0,14088,18.69,74616.3,5.91,2.89,3.81,0,*7C
1500401125.24,14089,18.69,74618.5,5.91,2.85,3.75,0,*7A
1500401126.47,14090,18.69,74616.8,5.91,2.85,3.75,0,*72
1500401127.68,14091,18.69,74618.5,5.91,2.85,3.81,0,*78
1500401128.91,14092,18.69,74612.5,5.91,2.73,3.75,0,*79
1500401130.12,14093,18.69,74612.5,5.91,2.73,3.81,0,*73
1500401131.34,14094,18.69,74614.0,5.89,2.73,3.81,0,*7D
1500401132.55,14095,18.69,74612.8,5.91,2.73,3.81,0,*75
1500401133.75,14096,18.69,74618.0,5.91,2.89,3.85,0,*77
1500401134.96,14097,18.69,74616.0,5.91,2.91,3.97,0,*7C
1500401136.17,14098,18.69,74618.3,5.91,2.91,3.97,0,*73
1500401137.36,14099,18.69,74618.5,5.91,2.99,3.93,0,*7E
1500401138.57,14100,18.69,74614.0,5.91,2.91,3.97,0,*73
1500401139.78,14101,18.69,74616.0,5.89,2.99,3.89,0,*7C
1500401140.98,14102,18.69,74612.3,5.89,2.99,3.93,0,*74
1500401142.22,14103,18.69,74614.5,5.91,3.03,3.97,0,*7A
1500401143.41,14104,18.69,74614.0,5.91,2.91,3.93,0,*73
1500401144.6,14105,18.69,74616.0,5.91,2.91,3.93,0,*72
1500401145.79,14106,18.69,74614.0,5.91,2.91,3.93,0,*71
1500401147.0,14107,18.69,74616.3,5.91,2.85,3.81,0,*76
1500401148.2,14108,18.69,74618.5,5.91,2.85,3.85,0,*7D
1500401149.41,14109,18.69,74616.5,5.91,2.89,4.07,0,*7D
1500401150.62,14110,18.69,74614.5,5.91,2.91,4.05,0,*7E
1500401151.88,14111,18.69,74616.3,5.93,2.85,4.05,0,*78
1500401153.11,14112,18.69,74618.8,5.91,2.77,3.97,0,*78
1500401154.34,14113,18.69,74616.0,5.91,2.73,3.97,0,*7D
1500401155.59,14114,18.69,74616.8,5.93,2.73,3.97,0,*78
1500401156.85,14115,18.69,74612.8,5.93,2.77,3.97,0,*7D
1500401158.1,14116,18.69,74616.8,5.93,2.85,3.97,0,*73
1500401159.36,14117,18.69,74612.0,5.93,2.89,3.97,0,*7E
1500401160.57,14118,18.69,74616.8,5.91,2.99,4.05,0,*7E
1500401161.78,14119,18.69,74618.0,5.91,2.99,4.05,0,*7F
1500401163.0,14120,18.69,74614.8,5.93,2.91,3.93,0,*77
1500401164.24,14121,18.69,74616.0,5.93,2.91,4.05,0,*7E
1500401165.45,14122,18.69,74616.8,5.91,2.91,4.05,0,*7F
1500401166.66,14123,18.69,74614.3,5.91,2.89,3.93,0,*7F
1500401167.87,14124,18.69,74618.0,5.91,2.89,4.07,0,*72
1500401169.08,14125,18.69,74614.5,5.91,3.03,4.19,0,*7F
1500401170.28,14126,18.69,74616.0,5.91,3.03,4.27,0,*71
1500401171.55,14127,18.69,74612.3,5.93,3.11,4.31,0,*76
1500401172.79,14128,18.69,74616.0,5.93,3.11,4.27,0,*7E
1500401174.02,14129,18.69,74614.8,5.93,3.03,4.27,0,*7C
1500401175.26,14130,18.69,74616.3,5.93,3.11,4.27,0,*77
1500401176.53,14131,18.69,74616.0,5.93,3.15,4.31,0,*75
1500401177.79,14132,18.69,74618.5,5.93,3.23,4.31,0,*73
1500401179.0,14133,18.69,74616.3,5.93,3.25,4.27,0,*73
1500401180.23,14134,18.69,74616.3,5.93,3.23,4.27,0,*72
1500401181.49,14135,18.69,74620.0,5.93,3.33,4.31,0,*75
1500401182.76,14136,18.69,74616.5,5.93,3.37,4.31,0,*72
1500401184.0,14137,18.69,74616.0,5.93,3.45,4.37,0,*70
1500401185.21,14138,18.69,74616.8,5.93,3.55,4.37,0,*7E
1500401186.47,14139,18.69,74618.0,5.93,3.49,4.31,0,*74
1500401187.71,14140,18.69,74618.0,5.93,3.49,4.37,0,*7C
1500401188.94,14141,18.69,74614.8,5.93,3.49,4.37,0,*7D
1500401190.17,14142,18.69,74614.5,5.93,3.49,4.27,0,*7F
1500401191.4,14143,18.69,74618.5,5.93,3.45,4.27,0,*72
1500401192.63,14144,18.69,74614.3,5.93,3.37,4.27,0,*70
1500401193.84,14145,18.69,74614.0,5.93,3.25,4.27,0,*72
1500401195.07,14146,18.69,74616.0,5.93,3.33,4.27,0,*76
1500401196.31,14147,18.69,74616.0,5.93,3.33,4.37,0,*76
1500401197.55,14148,18.69,74616.5,5.93,3.37,4.41,0,*7C
1500401198.76,14149,18.69,74616.5,5.95,3.37,4.41,0,*7B
1500401200.0,14150,18.69,74614.5,5.93,3.45,4.45,0,*74
1500401201.2,14151,18.69,74618.8,5.95,3.49,4.49,0,*73
1500401202.42,14152,18.69,74618.5,5.95,3.41,4.45,0,*74
1500401203.66,14153,18.69,74612.5,5.93,3.45,4.33,0,*76
1500401204.89,14154,18.69,74616.8,5.93,3.45,4.27,0,*74
1500401206.12,14155,18.69,74616.5,5.93,3.37,4.19,0,*7D
1500401207.32,14156,18.69,74616.0,5.95,3.49,4.23,0,*78
1500401208.51,14157,18.69,74616.0,5.95,3.59,4.33,0,*79
1500401209.75,14158,18.69,74616.8,5.93,3.59,4.31,0,*72
1500401211.01,14159,18.69,74620.0,5.93,3.49,4.05,0,*75
1500401212.25,14160,18.69,74622.0,5.93,3.45,3.93,0,*7B
1500401213.48,14161,18.69,74622.0,5.93,3.45,3.93,0,*7A
1500401214.72,14162,18.69,74616.5,5.93,3.37,3.81,0,*7F
1500401215.96,14163,18.69,74620.5,5.93,3.37,3.81,0,*7E
1500401217.2,14164,18.69,74618.3,5.93,3.37,3.81,0,*79
1500401218.43,14165,18.69,74616.3,5.93,3.33,3.81,0,*7C
1500401219.62,14166,18.69,74618.3,5.91,3.25,3.85,0,*7E
1500401220.82,14167,18.69,74616.5,5.91,3.23,3.85,0,*79
1500401222.05,14168,18.69,74618.8,5.89,2.95,3.79,0,*70
1500401223.24,14169,18.69,74616.5,5.91,2.91,3.85,0,*7F
1500401224.44,14170,18.69,74618.0,5.91,2.85,3.93,0,*75
1500401225.68,14171,18.69,74618.3,5.89,2.59,3.81,0,*7F
1500401226.89,14172,18.69,74618.0,5.91,2.55,3.81,0,*79
1500401228.12,14173,18.69,74618.3,5.89,2.51,3.81,0,*75
1500401229.36,14174,18.69,74618.8,5.89,2.47,3.93,0,*76
1500401230.57,14175,18.69,74618.8,5.91,2.31,4.05,0,*77
1500401231.78,14176,18.69,74618.8,5.91,2.21,4.07,0,*77
1500401233.03,14177,18.69,74614.8,5.89,2.01,4.01,0,*7B
1500401234.24,14178,18.69,74614.3,5.91,1.89,4.07,0,*78
1500401235.44,14179,18.69,74618.0,5.91,2.01,4.19,0,*75
1500401236.68,14180,18.69,74618.8,5.89,2.01,4.23,0,*73
1500401237.9,14181,18.69,74616.0,5.89,2.01,4.11,0,*73
1500401239.13,14182,18.69,74614.8,5.89,2.25,4.23,0,*77
1500401240.36,14183,18.69,74616.3,5.89,2.39,4.23,0,*7B
1500401241.57,14184,18.69,74616.3,5.91,2.77,4.37,0,*7A
1500401242.79,14185,18.69,74614.0,5.91,2.77,4.41,0,*7A
1500401244.02,14186,18.69,74616.8,5.89,2.85,4.33,0,*78
1500401245.25,14187,18.69,74612.3,5.89,3.07,4.23,0,*73
1500401246.44,14188,18.69,74618.8,5.91,3.25,4.37,0,*70
1500401247.67,14189,18.69,74616.5,5.89,3.23,4.27,0,*7F
1500401248.9,14190,18.69,74612.0,5.89,3.23,4.15,0,*76
1500401250.11,14191,18.69,74614.8,5.89,3.29,4.07,0,*7E
1500401251.36,14192,18.69,74618.5,5.89,3.33,4.05,0,*74
1500401252.6,14193,18.69,74616.5,5.91,3.45,4.05,0,*7D
1500401253.83,14194,18.69,74614.5,5.89,3.53,3.93,0,*7C
1500401255.05,14195,18.69,74616.3,5.85,3.49,3.89,0,*71
1500401256.28,14196,18.69,74618.8,5.89,3.45,3.89,0,*72
1500401257.53,14197,18.69,74618.5,5.89,3.19,3.67,0,*7A
1500401258.72,14198,18.69,74616.0,5.85,2.95,3.59,0,*71
1500401259.98,14199,18.69,74616.5,5.89,3.07,3.71,0,*7C
1500401261.2,14200,18.69,74618.5,5.85,2.95,3.67,0,*7E
1500401262.42,14201,18.69,74612.3,5.83,2.85,3.67,0,*78
1500401263.62,14202,18.69,74614.8,5.83,2.85,3.63,0,*7F
1500401264.81,14203,18.69,74614.5,5.83,2.81,3.63,0,*7A
1500401266.06,14204,18.69,74614.0,5.85,2.81,3.67,0,*7F
1500401267.28,14205,18.69,74614.5,5.83,2.81,3.67,0,*78
1500401268.5,14206,18.69,74612.3,5.83,2.85,3.79,0,*70
1500401269.72,14207,18.69,74614.3,5.85,2.91,3.79,0,*72
1500401270.9,14208,18.69,74614.5,5.83,2.95,3.89,0,*70
1500401272.07,14209,18.69,74614.8,5.83,2.95,3.85,0,*7D
1500401273.25,14210,18.69,74616.8,5.83,2.95,3.89,0,*79
1500401274.43,14211,18.69,74618.0,5.83,2.95,3.89,0,*78
1500401275.62,14212,18.69,74618.3,5.83,2.95,3.79,0,*74
1500401276.85,14213,18.69,74614.8,5.83,3.03,3.97,0,*7B
1500401278.08,14214,18.69,74616.3,5.83,3.03,3.97,0,*7C
1500401279.3,14215,18.69,74614.3,5.83,3.03,4.01,0,*75
1500401280.48,14216,18.69,74614.0,5.83,2.91,3.89,0,*7B
1500401281.66,14217,18.69,74612.5,5.83,2.95,3.89,0,*7E
1500401282.84,14218,18.69,74618.0,5.83,2.91,3.89,0,*75
1500401284.06,14219,18.69,74614.0,5.83,2.77,3.75,0,*7F
1500401285.29,14220,18.69,74616.0,5.83,2.77,3.75,0,*75
1500401286.51,14221,18.69,74618.0,5.83,2.77,3.79,0,*78
1500401287.73,14222,18.69,74618.0,5.83,2.77,3.75,0,*77
1500401288.98,14223,18.69,74612.0,5.81,2.39,3.37,0,*78
1500401290.2,14224,18.69,74612.5,5.81,2.31,3.45,0,*72
1500401291.4,14225,18.69,74614.8,5.79,2.55,3.55,0,*77
1500401292.57,14226,18.69,74614.8,5.79,2.61,3.63,0,*76
1500401293.79,14227,18.69,74616.5,5.79,2.77,3.75,0,*77
1500401295.04,14228,18.69,74612.5,5.81,2.77,3.75,0,*7F
1500401296.23,14229,18.69,74614.0,5.79,2.77,3.81,0,*72
1500401297.43,14230,18.69,74614.8,5.79,2.73,3.81,0,*7E
1500401298.62,14231,18.69,74614.3,5.79,2.77,3.85,0,*7F
1500401299.84,14232,18.69,74610.8,5.79,2.73,3.75,0,*77
1500401301.04,14233,18.69,74612.0,5.79,2.77,3.81,0,*79
1500401302.23,14234,18.69,74614.5,5.79,2.81,3.85,0,*73
1500401303.45,14235,18.69,74612.3,5.81,2.77,3.81,0,*78
1500401304.67,14236,18.69,74612.0,5.79,2.73,3.75,0,*73
1500401305.87,14237,18.69,74614.5,5.79,2.81,3.85,0,*70
1500401307.08,14238,18.69,74614.8,5.79,2.73,3.97,0,*71
1500401308.25,14239,18.69,74614.5,5.79,2.61,3.93,0,*77
1500401309.43,14240,18.69,74614.8,5.79,2.65,3.93,0,*7D
1500401310.61,14241,18.69,74614.0,5.79,2.61,3.93,0,*78
1500401311.81,14242,18.69,74612.5,5.79,2.51,3.85,0,*7F
1500401313.0,14243,18.69,74612.8,5.79,2.31,3.75,0,*77
1500401314.21,14244,18.69,74614.3,5.79,2.27,3.75,0,*77
1500401315.38,14245,18.69,74612.5,5.79,2.31,3.93,0,*79
1500401316.58,14246,18.69,74616.5,5.79,2.61,3.97,0,*7B
1500401317.77,14247,18.69,74618.0,5.79,2.73,4.07,0,*77
1500401318.96,14248,18.69,74618.0,5.79,2.77,4.19,0,*73
1500401320.15,14249,18.69,74614.0,5.79,2.73,4.15,0,*7A
1500401321.32,14250,18.69,74618.8,5.79,2.61,4.15,0,*71
1500401322.49,14251,18.69,74614.0,5.79,2.61,4.19,0,*7C
1500401323.68,14252,18.69,74614.0,5.79,2.55,4.15,0,*74
1500401324.9,14253,18.69,74614.5,5.77,2.59,4.11,0,*73
1500401326.15,14254,18.69,74614.0,5.77,2.47,4.01,0,*7A
1500401327.36,14255,18.69,74616.3,5.77,2.73,4.15,0,*79
1500401328.57,14256,18.69,74614.5,5.77,2.73,4.15,0,*7A
1500401329.76,14257,18.69,74616.3,5.77,2.95,4.27,0,*72
1500401330.96,14258,18.69,74614.0,5.77,2.95,4.23,0,*79
1500401332.18,14259,18.69,74614.5,5.77,2.95,4.31,0,*7B
1500401333.4,14260,18.69,74614.0,5.77,2.95,4.31,0,*71